Year,Month,Day,Hour,Minute,Value (Times are PST for temperature in C)
2007,07,10,00,00,19.20
2007,07,10,00,01,19.20
2007,07,10,00,02,19.20
2007,07,10,00,03,19.20
2007,07,10,00,04,19.20
2007,07,10,00,05,19.20
2007,07,10,00,06,19.20
2007,07,10,00,07,19.20
2007,07,10,00,08,19.20
2007,07,10,00,09,19.20
2007,07,10,00,10,19.20
2007,07,10,00,11,19.20
2007,07,10,00,12,19.20
2007,07,10,00,13,19.10
2007,07,10,00,14,19.10
2007,07,10,00,15,19.10
2007,07,10,00,16,19.10
2007,07,10,00,17,19.10
2007,07,10,00,18,19.10
2007,07,10,00,19,18.90
2007,07,10,00,20,18.90
2007,07,10,00,21,18.90
2007,07,10,00,22,18.90
2007,07,10,00,23,18.90
2007,07,10,00,24,18.90
2007,07,10,00,25,18.90
2007,07,10,00,26,18.90
2007,07,10,00,27,18.80
2007,07,10,00,28,18.80
2007,07,10,00,29,18.80
2007,07,10,00,30,18.80
2007,07,10,00,31,18.80
2007,07,10,00,32,18.80
2007,07,10,00,33,18.80
2007,07,10,00,34,18.80
2007,07,10,00,35,18.80
2007,07,10,00,36,18.80
2007,07,10,00,37,18.70
2007,07,10,00,38,18.70
2007,07,10,00,39,18.70
2007,07,10,00,40,18.70
2007,07,10,00,41,18.70
2007,07,10,00,42,18.70
2007,07,10,00,43,18.60
2007,07,10,00,44,18.60
2007,07,10,00,45,18.60
2007,07,10,00,46,18.70
2007,07,10,00,47,18.70
2007,07,10,00,48,18.70
2007,07,10,00,49,18.70
2007,07,10,00,50,18.70
2007,07,10,00,51,18.70
2007,07,10,00,52,18.70
2007,07,10,00,53,18.70
2007,07,10,00,54,18.70
2007,07,10,00,55,18.70
2007,07,10,00,56,18.70
2007,07,10,00,57,18.70
2007,07,10,00,58,18.70
2007,07,10,00,59,18.70
2007,07,10,01,00,18.70
2007,07,10,01,01,18.70
2007,07,10,01,02,18.70
2007,07,10,01,03,18.60
2007,07,10,01,04,18.60
2007,07,10,01,05,18.50
2007,07,10,01,06,18.50
2007,07,10,01,07,18.40
2007,07,10,01,08,18.30
2007,07,10,01,09,18.30
2007,07,10,01,10,18.20
2007,07,10,01,11,18.10
2007,07,10,01,12,18.00
2007,07,10,01,13,17.90
2007,07,10,01,14,17.80
2007,07,10,01,15,17.70
2007,07,10,01,16,17.60
2007,07,10,01,17,17.50
2007,07,10,01,18,17.50
2007,07,10,01,19,17.40
2007,07,10,01,20,17.30
2007,07,10,01,21,17.30
2007,07,10,01,22,17.20
2007,07,10,01,23,17.20
2007,07,10,01,24,17.10
2007,07,10,01,25,17.00
2007,07,10,01,26,17.00
2007,07,10,01,27,17.00
2007,07,10,01,28,16.90
2007,07,10,01,29,16.90
2007,07,10,01,30,16.90
2007,07,10,01,31,16.90
2007,07,10,01,32,16.80
2007,07,10,01,33,16.80
2007,07,10,01,34,16.80
2007,07,10,01,35,16.80
2007,07,10,01,36,16.80
2007,07,10,01,37,16.80
2007,07,10,01,38,16.80
2007,07,10,01,39,16.80
2007,07,10,01,40,16.70
2007,07,10,01,41,16.70
2007,07,10,01,42,16.70
2007,07,10,01,43,16.70
2007,07,10,01,44,16.70
2007,07,10,01,45,16.70
2007,07,10,01,46,16.70
2007,07,10,01,47,16.70
2007,07,10,01,48,16.60
2007,07,10,01,49,16.60
2007,07,10,01,50,16.60
2007,07,10,01,51,16.60
2007,07,10,01,52,16.60
2007,07,10,01,53,16.70
2007,07,10,01,54,16.70
2007,07,10,01,55,16.70
2007,07,10,01,56,16.70
2007,07,10,01,57,16.70
2007,07,10,01,58,16.70
2007,07,10,01,59,16.70
2007,07,10,02,00,16.80
2007,07,10,02,01,16.80
2007,07,10,02,02,16.80
2007,07,10,02,03,16.90
2007,07,10,02,04,16.90
2007,07,10,02,05,16.90
2007,07,10,02,06,16.90
2007,07,10,02,07,16.90
2007,07,10,02,08,16.90
2007,07,10,02,09,17.00
2007,07,10,02,10,17.00
2007,07,10,02,11,17.00
2007,07,10,02,12,17.00
2007,07,10,02,13,17.00
2007,07,10,02,14,17.00
2007,07,10,02,15,17.00
2007,07,10,02,16,17.00
2007,07,10,02,17,17.00
2007,07,10,02,18,17.00
2007,07,10,02,19,17.00
2007,07,10,02,20,17.00
2007,07,10,02,21,17.00
2007,07,10,02,22,17.00
2007,07,10,02,23,17.00
2007,07,10,02,24,16.90
2007,07,10,02,25,16.90
2007,07,10,02,26,16.90
2007,07,10,02,27,16.80
2007,07,10,02,28,16.80
2007,07,10,02,29,16.80
2007,07,10,02,30,16.70
2007,07,10,02,31,16.70
2007,07,10,02,32,16.70
2007,07,10,02,33,16.70
2007,07,10,02,34,16.70
2007,07,10,02,35,16.70
2007,07,10,02,36,16.70
2007,07,10,02,37,16.70
2007,07,10,02,38,16.70
2007,07,10,02,39,16.70
2007,07,10,02,40,16.70
2007,07,10,02,41,16.70
2007,07,10,02,42,16.70
2007,07,10,02,43,16.70
2007,07,10,02,44,16.70
2007,07,10,02,45,16.70
2007,07,10,02,46,16.60
2007,07,10,02,47,16.60
2007,07,10,02,48,16.60
2007,07,10,02,49,16.50
2007,07,10,02,50,16.40
2007,07,10,02,51,16.40
2007,07,10,02,52,16.40
2007,07,10,02,53,16.40
2007,07,10,02,54,16.40
2007,07,10,02,55,16.40
2007,07,10,02,56,16.30
2007,07,10,02,57,16.30
2007,07,10,02,58,16.30
2007,07,10,02,59,16.30
2007,07,10,03,00,16.20
2007,07,10,03,01,16.20
2007,07,10,03,02,16.20
2007,07,10,03,03,16.10
2007,07,10,03,04,16.10
2007,07,10,03,05,16.10
2007,07,10,03,06,16.00
2007,07,10,03,07,15.90
2007,07,10,03,08,15.90
2007,07,10,03,09,15.80
2007,07,10,03,10,15.80
2007,07,10,03,11,15.80
2007,07,10,03,12,15.80
2007,07,10,03,13,15.80
2007,07,10,03,14,15.80
2007,07,10,03,15,15.80
2007,07,10,03,16,15.70
2007,07,10,03,17,15.70
2007,07,10,03,18,15.70
2007,07,10,03,19,15.70
2007,07,10,03,20,15.70
2007,07,10,03,21,15.70
2007,07,10,03,22,15.70
2007,07,10,03,23,15.70
2007,07,10,03,24,15.70
2007,07,10,03,25,15.70
2007,07,10,03,26,15.70
2007,07,10,03,27,15.70
2007,07,10,03,28,15.70
2007,07,10,03,29,15.70
2007,07,10,03,30,15.70
2007,07,10,03,31,15.80
2007,07,10,03,32,15.80
2007,07,10,03,33,15.80
2007,07,10,03,34,15.80
2007,07,10,03,35,15.80
2007,07,10,03,36,15.90
2007,07,10,03,37,15.90
2007,07,10,03,38,15.90
2007,07,10,03,39,15.80
2007,07,10,03,40,15.80
2007,07,10,03,41,15.80
2007,07,10,03,42,15.90
2007,07,10,03,43,15.90
2007,07,10,03,44,15.90
2007,07,10,03,45,15.90
2007,07,10,03,46,15.90
2007,07,10,03,47,15.90
2007,07,10,03,48,15.90
2007,07,10,03,49,15.90
2007,07,10,03,50,15.90
2007,07,10,03,51,15.90
2007,07,10,03,52,15.90
2007,07,10,03,53,16.00
2007,07,10,03,54,16.10
2007,07,10,03,55,16.10
2007,07,10,03,56,16.10
2007,07,10,03,57,16.10
2007,07,10,03,58,16.20
2007,07,10,03,59,16.20
2007,07,10,04,00,16.20
2007,07,10,04,01,16.30
2007,07,10,04,02,16.30
2007,07,10,04,03,16.30
2007,07,10,04,04,16.30
2007,07,10,04,05,16.30
2007,07,10,04,06,16.30
2007,07,10,04,07,16.30
2007,07,10,04,08,16.30
2007,07,10,04,09,16.30
2007,07,10,04,10,16.30
2007,07,10,04,11,16.30
2007,07,10,04,12,16.40
2007,07,10,04,13,16.40
2007,07,10,04,14,16.40
2007,07,10,04,15,16.40
2007,07,10,04,16,16.40
2007,07,10,04,17,16.40
2007,07,10,04,18,16.40
2007,07,10,04,19,16.40
2007,07,10,04,20,16.40
2007,07,10,04,21,16.40
2007,07,10,04,22,16.40
2007,07,10,04,23,16.40
2007,07,10,04,24,16.40
2007,07,10,04,25,16.30
2007,07,10,04,26,16.30
2007,07,10,04,27,16.30
2007,07,10,04,28,16.30
2007,07,10,04,29,16.30
2007,07,10,04,30,16.20
2007,07,10,04,31,16.20
2007,07,10,04,32,16.20
2007,07,10,04,33,16.20
2007,07,10,04,34,16.20
2007,07,10,04,35,16.20
2007,07,10,04,36,16.20
2007,07,10,04,37,16.20
2007,07,10,04,38,16.20
2007,07,10,04,39,16.20
2007,07,10,04,40,16.20
2007,07,10,04,41,16.20
2007,07,10,04,42,16.20
2007,07,10,04,43,16.20
2007,07,10,04,44,16.20
2007,07,10,04,45,16.10
2007,07,10,04,46,16.10
2007,07,10,04,47,16.10
2007,07,10,04,48,16.20
2007,07,10,04,49,16.20
2007,07,10,04,50,16.30
2007,07,10,04,51,16.30
2007,07,10,04,52,16.40
2007,07,10,04,53,16.40
2007,07,10,04,54,16.50
2007,07,10,04,55,16.60
2007,07,10,04,56,16.60
2007,07,10,04,57,16.60
2007,07,10,04,58,16.70
2007,07,10,04,59,16.70
2007,07,10,05,00,16.70
2007,07,10,05,01,16.70
2007,07,10,05,02,16.70
2007,07,10,05,03,16.70
2007,07,10,05,04,16.70
2007,07,10,05,05,16.70
2007,07,10,05,06,16.70
2007,07,10,05,07,16.70
2007,07,10,05,08,16.70
2007,07,10,05,09,16.70
2007,07,10,05,10,16.70
2007,07,10,05,11,16.70
2007,07,10,05,12,16.70
2007,07,10,05,13,16.70
2007,07,10,05,14,16.70
2007,07,10,05,15,16.70
2007,07,10,05,16,16.70
2007,07,10,05,17,16.70
2007,07,10,05,18,16.70
2007,07,10,05,19,16.70
2007,07,10,05,20,16.70
2007,07,10,05,21,16.70
2007,07,10,05,22,16.70
2007,07,10,05,23,16.70
2007,07,10,05,24,16.70
2007,07,10,05,25,16.70
2007,07,10,05,26,16.70
2007,07,10,05,27,16.70
2007,07,10,05,28,16.70
2007,07,10,05,29,16.70
2007,07,10,05,30,16.70
2007,07,10,05,31,16.70
2007,07,10,05,32,16.60
2007,07,10,05,33,16.60
2007,07,10,05,34,16.60
2007,07,10,05,35,16.60
2007,07,10,05,36,16.60
2007,07,10,05,37,16.50
2007,07,10,05,38,16.40
2007,07,10,05,39,16.40
2007,07,10,05,40,16.40
2007,07,10,05,41,16.40
2007,07,10,05,42,16.40
2007,07,10,05,43,16.40
2007,07,10,05,44,16.40
2007,07,10,05,45,16.40
2007,07,10,05,46,16.40
2007,07,10,05,47,16.40
2007,07,10,05,48,16.40
2007,07,10,05,49,16.40
2007,07,10,05,50,16.40
2007,07,10,05,51,16.40
2007,07,10,05,52,16.30
2007,07,10,05,53,16.30
2007,07,10,05,54,16.30
2007,07,10,05,55,16.30
2007,07,10,05,56,16.30
2007,07,10,05,57,16.30
2007,07,10,05,58,16.20
2007,07,10,05,59,16.20
2007,07,10,06,00,16.20
2007,07,10,06,01,16.20
2007,07,10,06,02,16.20
2007,07,10,06,03,16.20
2007,07,10,06,04,16.20
2007,07,10,06,05,16.20
2007,07,10,06,06,16.20
2007,07,10,06,07,16.20
2007,07,10,06,08,16.20
2007,07,10,06,09,16.20
2007,07,10,06,10,16.20
2007,07,10,06,11,16.20
2007,07,10,06,12,16.20
2007,07,10,06,13,16.20
2007,07,10,06,14,16.20
2007,07,10,06,15,16.20
2007,07,10,06,16,16.20
2007,07,10,06,17,16.10
2007,07,10,06,18,16.10
2007,07,10,06,19,16.10
2007,07,10,06,20,16.10
2007,07,10,06,21,16.20
2007,07,10,06,22,16.20
2007,07,10,06,23,16.20
2007,07,10,06,24,16.20
2007,07,10,06,25,16.30
2007,07,10,06,26,16.30
2007,07,10,06,27,16.40
2007,07,10,06,28,16.40
2007,07,10,06,29,16.40
2007,07,10,06,30,16.60
2007,07,10,06,31,16.60
2007,07,10,06,32,16.70
2007,07,10,06,33,16.70
2007,07,10,06,34,16.80
2007,07,10,06,35,16.90
2007,07,10,06,36,16.90
2007,07,10,06,37,17.00
2007,07,10,06,38,17.00
2007,07,10,06,39,17.10
2007,07,10,06,40,17.10
2007,07,10,06,41,17.10
2007,07,10,06,42,17.30
2007,07,10,06,43,17.30
2007,07,10,06,44,17.30
2007,07,10,06,45,17.30
2007,07,10,06,46,17.30
2007,07,10,06,47,17.30
2007,07,10,06,48,17.50
2007,07,10,06,49,17.50
2007,07,10,06,50,17.50
2007,07,10,06,51,17.60
2007,07,10,06,52,17.60
2007,07,10,06,53,17.70
2007,07,10,06,54,17.70
2007,07,10,06,55,17.70
2007,07,10,06,56,17.90
2007,07,10,06,57,17.90
2007,07,10,06,58,18.00
2007,07,10,06,59,18.10
2007,07,10,07,00,18.20
2007,07,10,07,01,18.30
2007,07,10,07,02,18.40
2007,07,10,07,03,18.50
2007,07,10,07,04,18.50
2007,07,10,07,05,18.50
2007,07,10,07,06,18.60
2007,07,10,07,07,18.60
2007,07,10,07,08,18.70
2007,07,10,07,09,18.70
2007,07,10,07,10,18.80
2007,07,10,07,11,18.80
2007,07,10,07,12,18.90
2007,07,10,07,13,18.90
2007,07,10,07,14,19.00
2007,07,10,07,15,19.10
2007,07,10,07,16,19.20
2007,07,10,07,17,19.30
2007,07,10,07,18,19.40
2007,07,10,07,19,19.50
2007,07,10,07,20,19.60
2007,07,10,07,21,19.80
2007,07,10,07,22,19.90
2007,07,10,07,23,20.10
2007,07,10,07,24,20.20
2007,07,10,07,25,20.30
2007,07,10,07,26,20.50
2007,07,10,07,27,20.50
2007,07,10,07,28,20.70
2007,07,10,07,29,20.80
2007,07,10,07,30,20.90
2007,07,10,07,31,21.00
2007,07,10,07,32,21.00
2007,07,10,07,33,21.10
2007,07,10,07,34,21.20
2007,07,10,07,35,21.30
2007,07,10,07,36,21.30
2007,07,10,07,37,21.40
2007,07,10,07,38,21.50
2007,07,10,07,39,21.60
2007,07,10,07,40,21.60
2007,07,10,07,41,21.60
2007,07,10,07,42,21.50
2007,07,10,07,43,21.50
2007,07,10,07,44,21.60
2007,07,10,07,45,21.50
2007,07,10,07,46,21.50
2007,07,10,07,47,21.40
2007,07,10,07,48,21.40
2007,07,10,07,49,21.30
2007,07,10,07,50,21.30
2007,07,10,07,51,21.30
2007,07,10,07,52,21.30
2007,07,10,07,53,21.30
2007,07,10,07,54,21.30
2007,07,10,07,55,21.30
2007,07,10,07,56,21.30
2007,07,10,07,57,21.30
2007,07,10,07,58,21.30
2007,07,10,07,59,21.30
2007,07,10,08,00,21.30
2007,07,10,08,01,21.30
2007,07,10,08,02,21.20
2007,07,10,08,03,21.20
2007,07,10,08,04,21.10
2007,07,10,08,05,21.10
2007,07,10,08,06,21.10
2007,07,10,08,07,21.10
2007,07,10,08,08,21.20
2007,07,10,08,09,21.20
2007,07,10,08,10,21.20
2007,07,10,08,11,21.20
2007,07,10,08,12,21.30
2007,07,10,08,13,21.30
2007,07,10,08,14,21.30
2007,07,10,08,15,21.40
2007,07,10,08,16,21.40
2007,07,10,08,17,21.50
2007,07,10,08,18,21.60
2007,07,10,08,19,21.60
2007,07,10,08,20,21.70
2007,07,10,08,21,21.80
2007,07,10,08,22,21.90
2007,07,10,08,23,22.00
2007,07,10,08,24,22.20
2007,07,10,08,25,22.30
2007,07,10,08,26,22.50
2007,07,10,08,27,22.60
2007,07,10,08,28,22.70
2007,07,10,08,29,22.80
2007,07,10,08,30,22.90
2007,07,10,08,31,23.00
2007,07,10,08,32,23.10
2007,07,10,08,33,23.20
2007,07,10,08,34,23.30
2007,07,10,08,35,23.30
2007,07,10,08,36,23.40
2007,07,10,08,37,23.40
2007,07,10,08,38,23.40
2007,07,10,08,39,23.40
2007,07,10,08,40,23.50
2007,07,10,08,41,23.60
2007,07,10,08,42,23.60
2007,07,10,08,43,23.70
2007,07,10,08,44,23.80
2007,07,10,08,45,23.80
2007,07,10,08,46,23.90
2007,07,10,08,47,23.90
2007,07,10,08,48,23.90
2007,07,10,08,49,23.90
2007,07,10,08,50,24.00
2007,07,10,08,51,24.10
2007,07,10,08,52,24.10
2007,07,10,08,53,24.10
2007,07,10,08,54,24.10
2007,07,10,08,55,24.10
2007,07,10,08,56,24.10
2007,07,10,08,57,24.10
2007,07,10,08,58,24.10
2007,07,10,08,59,24.10
2007,07,10,09,00,24.20
2007,07,10,09,01,24.30
2007,07,10,09,02,24.30
2007,07,10,09,03,24.30
2007,07,10,09,04,24.40
2007,07,10,09,05,24.40
2007,07,10,09,06,24.50
2007,07,10,09,07,24.50
2007,07,10,09,08,24.50
2007,07,10,09,09,24.50
2007,07,10,09,10,24.60
2007,07,10,09,11,24.60
2007,07,10,09,12,24.70
2007,07,10,09,13,24.70
2007,07,10,09,14,24.70
2007,07,10,09,15,24.70
2007,07,10,09,16,24.70
2007,07,10,09,17,24.60
2007,07,10,09,18,24.60
2007,07,10,09,19,24.50
2007,07,10,09,20,24.50
2007,07,10,09,21,24.60
2007,07,10,09,22,24.70
2007,07,10,09,23,24.70
2007,07,10,09,24,24.70
2007,07,10,09,25,24.70
2007,07,10,09,26,24.70
2007,07,10,09,27,24.60
2007,07,10,09,28,24.50
2007,07,10,09,29,24.40
2007,07,10,09,30,24.30
2007,07,10,09,31,24.30
2007,07,10,09,32,24.30
2007,07,10,09,33,24.30
2007,07,10,09,34,24.20
2007,07,10,09,35,24.20
2007,07,10,09,36,24.20
2007,07,10,09,37,24.20
2007,07,10,09,38,24.20
2007,07,10,09,39,24.30
2007,07,10,09,40,24.30
2007,07,10,09,41,24.30
2007,07,10,09,42,24.30
2007,07,10,09,43,24.10
2007,07,10,09,44,24.10
2007,07,10,09,45,24.10
2007,07,10,09,46,24.10
2007,07,10,09,47,24.00
2007,07,10,09,48,23.90
2007,07,10,09,49,23.80
2007,07,10,09,50,23.80
2007,07,10,09,51,23.80
2007,07,10,09,52,23.90
2007,07,10,09,53,23.90
2007,07,10,09,54,24.00
2007,07,10,09,55,24.10
2007,07,10,09,56,24.20
2007,07,10,09,57,24.10
2007,07,10,09,58,24.10
2007,07,10,09,59,24.20
2007,07,10,10,00,24.30
2007,07,10,10,01,24.30
2007,07,10,10,02,24.30
2007,07,10,10,03,24.20
2007,07,10,10,04,24.20
2007,07,10,10,05,24.20
2007,07,10,10,06,24.30
2007,07,10,10,07,24.30
2007,07,10,10,08,24.50
2007,07,10,10,09,24.50
2007,07,10,10,10,24.60
2007,07,10,10,11,24.70
2007,07,10,10,12,24.80
2007,07,10,10,13,24.80
2007,07,10,10,14,24.80
2007,07,10,10,15,24.80
2007,07,10,10,16,24.80
2007,07,10,10,17,24.80
2007,07,10,10,18,24.80
2007,07,10,10,19,24.80
2007,07,10,10,20,24.90
2007,07,10,10,21,24.90
2007,07,10,10,22,24.90
2007,07,10,10,23,24.90
2007,07,10,10,24,24.90
2007,07,10,10,25,25.00
2007,07,10,10,26,25.10
2007,07,10,10,27,25.20
2007,07,10,10,28,25.30
2007,07,10,10,29,25.30
2007,07,10,10,30,25.40
2007,07,10,10,31,25.50
2007,07,10,10,32,25.50
2007,07,10,10,33,25.60
2007,07,10,10,34,25.70
2007,07,10,10,35,25.70
2007,07,10,10,36,25.70
2007,07,10,10,37,25.70
2007,07,10,10,38,25.70
2007,07,10,10,39,25.60
2007,07,10,10,40,25.60
2007,07,10,10,41,25.60
2007,07,10,10,42,25.60
2007,07,10,10,43,25.60
2007,07,10,10,44,25.50
2007,07,10,10,45,25.50
2007,07,10,10,46,25.50
2007,07,10,10,47,25.40
2007,07,10,10,48,25.40
2007,07,10,10,49,25.40
2007,07,10,10,50,25.40
2007,07,10,10,51,25.40
2007,07,10,10,52,25.30
2007,07,10,10,53,25.30
2007,07,10,10,54,25.20
2007,07,10,10,55,25.20
2007,07,10,10,56,25.20
2007,07,10,10,57,25.30
2007,07,10,10,58,25.30
2007,07,10,10,59,25.40
2007,07,10,11,00,25.50
2007,07,10,11,01,25.40
2007,07,10,11,02,25.40
2007,07,10,11,03,25.20
2007,07,10,11,04,25.20
2007,07,10,11,05,25.20
2007,07,10,11,06,25.20
2007,07,10,11,07,25.20
2007,07,10,11,08,25.10
2007,07,10,11,09,25.10
2007,07,10,11,10,25.10
2007,07,10,11,11,25.10
2007,07,10,11,12,25.20
2007,07,10,11,13,25.20
2007,07,10,11,14,25.30
2007,07,10,11,15,25.40
2007,07,10,11,16,25.40
2007,07,10,11,17,25.50
2007,07,10,11,18,25.50
2007,07,10,11,19,25.60
2007,07,10,11,20,25.60
2007,07,10,11,21,25.60
2007,07,10,11,22,25.70
2007,07,10,11,23,25.80
2007,07,10,11,24,25.90
2007,07,10,11,25,26.00
2007,07,10,11,26,26.10
2007,07,10,11,27,26.10
2007,07,10,11,28,26.10
2007,07,10,11,29,26.10
2007,07,10,11,30,26.10
2007,07,10,11,31,26.10
2007,07,10,11,32,26.10
2007,07,10,11,33,26.10
2007,07,10,11,34,26.10
2007,07,10,11,35,26.10
2007,07,10,11,36,26.20
2007,07,10,11,37,26.20
2007,07,10,11,38,26.30
2007,07,10,11,39,26.30
2007,07,10,11,40,26.30
2007,07,10,11,41,26.30
2007,07,10,11,42,26.30
2007,07,10,11,43,26.30
2007,07,10,11,44,26.30
2007,07,10,11,45,26.40
2007,07,10,11,46,26.60
2007,07,10,11,47,26.70
2007,07,10,11,48,26.80
2007,07,10,11,49,27.00
2007,07,10,11,50,27.10
2007,07,10,11,51,27.20
2007,07,10,11,52,27.30
2007,07,10,11,53,27.50
2007,07,10,11,54,27.60
2007,07,10,11,55,27.70
2007,07,10,11,56,27.90
2007,07,10,11,57,28.00
2007,07,10,11,58,28.20
2007,07,10,11,59,28.40
2007,07,10,12,00,28.40
2007,07,10,12,01,28.50
2007,07,10,12,02,28.60
2007,07,10,12,03,28.60
2007,07,10,12,04,28.60
2007,07,10,12,05,28.60
2007,07,10,12,06,28.60
2007,07,10,12,07,28.50
2007,07,10,12,08,28.40
2007,07,10,12,09,28.40
2007,07,10,12,10,28.40
2007,07,10,12,11,28.30
2007,07,10,12,12,28.40
2007,07,10,12,13,28.30
2007,07,10,12,14,28.20
2007,07,10,12,15,28.20
2007,07,10,12,16,28.10
2007,07,10,12,17,28.00
2007,07,10,12,18,27.90
2007,07,10,12,19,27.90
2007,07,10,12,20,27.90
2007,07,10,12,21,27.80
2007,07,10,12,22,27.80
2007,07,10,12,23,27.80
2007,07,10,12,24,27.90
2007,07,10,12,25,27.80
2007,07,10,12,26,27.80
2007,07,10,12,27,27.70
2007,07,10,12,28,27.70
2007,07,10,12,29,27.60
2007,07,10,12,30,27.60
2007,07,10,12,31,27.60
2007,07,10,12,32,27.60
2007,07,10,12,33,27.60
2007,07,10,12,34,27.60
2007,07,10,12,35,27.70
2007,07,10,12,36,27.60
2007,07,10,12,37,27.60
2007,07,10,12,38,27.60
2007,07,10,12,39,27.60
2007,07,10,12,40,27.70
2007,07,10,12,41,27.70
2007,07,10,12,42,27.70
2007,07,10,12,43,27.60
2007,07,10,12,44,27.50
2007,07,10,12,45,27.50
2007,07,10,12,46,27.60
2007,07,10,12,47,27.60
2007,07,10,12,48,27.60
2007,07,10,12,49,27.70
2007,07,10,12,50,27.60
2007,07,10,12,51,27.40
2007,07,10,12,52,27.40
2007,07,10,12,53,27.30
2007,07,10,12,54,27.30
2007,07,10,12,55,27.30
2007,07,10,12,56,27.20
2007,07,10,12,57,27.10
2007,07,10,12,58,27.10
2007,07,10,12,59,27.00
2007,07,10,13,00,26.80
2007,07,10,13,01,26.60
2007,07,10,13,02,26.50
2007,07,10,13,03,26.40
2007,07,10,13,04,26.30
2007,07,10,13,05,26.20
2007,07,10,13,06,26.10
2007,07,10,13,07,26.00
2007,07,10,13,08,26.00
2007,07,10,13,09,26.00
2007,07,10,13,10,26.10
2007,07,10,13,11,26.20
2007,07,10,13,12,26.20
2007,07,10,13,13,26.30
2007,07,10,13,14,26.40
2007,07,10,13,15,26.50
2007,07,10,13,16,26.60
2007,07,10,13,17,26.60
2007,07,10,13,18,26.60
2007,07,10,13,19,26.60
2007,07,10,13,20,26.60
2007,07,10,13,21,26.70
2007,07,10,13,22,26.70
2007,07,10,13,23,26.60
2007,07,10,13,24,26.60
2007,07,10,13,25,26.60
2007,07,10,13,26,26.60
2007,07,10,13,27,26.70
2007,07,10,13,28,26.80
2007,07,10,13,29,26.80
2007,07,10,13,30,26.90
2007,07,10,13,31,27.10
2007,07,10,13,32,27.10
2007,07,10,13,33,27.10
2007,07,10,13,34,26.90
2007,07,10,13,35,26.70
2007,07,10,13,36,26.70
2007,07,10,13,37,26.70
2007,07,10,13,38,26.70
2007,07,10,13,39,26.80
2007,07,10,13,40,26.80
2007,07,10,13,41,26.80
2007,07,10,13,42,26.80
2007,07,10,13,43,26.80
2007,07,10,13,44,26.80
2007,07,10,13,45,26.80
2007,07,10,13,46,26.90
2007,07,10,13,47,27.00
2007,07,10,13,48,27.10
2007,07,10,13,49,27.10
2007,07,10,13,50,27.10
2007,07,10,13,51,27.20
2007,07,10,13,52,27.20
2007,07,10,13,53,27.20
2007,07,10,13,54,27.30
2007,07,10,13,55,27.30
2007,07,10,13,56,27.30
2007,07,10,13,57,27.20
2007,07,10,13,58,27.10
2007,07,10,13,59,27.10
2007,07,10,14,00,27.10
2007,07,10,14,01,27.10
2007,07,10,14,02,27.10
2007,07,10,14,03,27.20
2007,07,10,14,04,27.20
2007,07,10,14,05,27.30
2007,07,10,14,06,27.30
2007,07,10,14,07,27.30
2007,07,10,14,08,27.40
2007,07,10,14,09,27.40
2007,07,10,14,10,27.50
2007,07,10,14,11,27.60
2007,07,10,14,12,27.60
2007,07,10,14,13,27.60
2007,07,10,14,14,27.60
2007,07,10,14,15,27.70
2007,07,10,14,16,27.70
2007,07,10,14,17,27.70
2007,07,10,14,18,27.60
2007,07,10,14,19,27.60
2007,07,10,14,20,27.50
2007,07,10,14,21,27.40
2007,07,10,14,22,27.40
2007,07,10,14,23,27.40
2007,07,10,14,24,27.50
2007,07,10,14,25,27.60
2007,07,10,14,26,27.60
2007,07,10,14,27,27.60
2007,07,10,14,28,27.70
2007,07,10,14,29,27.70
2007,07,10,14,30,27.80
2007,07,10,14,31,28.00
2007,07,10,14,32,28.00
2007,07,10,14,33,28.00
2007,07,10,14,34,28.10
2007,07,10,14,35,28.10
2007,07,10,14,36,28.20
2007,07,10,14,37,28.30
2007,07,10,14,38,28.30
2007,07,10,14,39,28.40
2007,07,10,14,40,28.50
2007,07,10,14,41,28.60
2007,07,10,14,42,28.60
2007,07,10,14,43,28.70
2007,07,10,14,44,28.70
2007,07,10,14,45,28.80
2007,07,10,14,46,28.90
2007,07,10,14,47,28.90
2007,07,10,14,48,28.90
2007,07,10,14,49,28.90
2007,07,10,14,50,28.90
2007,07,10,14,51,28.90
2007,07,10,14,52,28.90
2007,07,10,14,53,28.90
2007,07,10,14,54,28.90
2007,07,10,14,55,28.90
2007,07,10,14,56,28.90
2007,07,10,14,57,28.90
2007,07,10,14,58,28.90
2007,07,10,14,59,28.90
2007,07,10,15,00,28.90
2007,07,10,15,01,28.90
2007,07,10,15,02,28.90
2007,07,10,15,03,28.80
2007,07,10,15,04,28.90
2007,07,10,15,05,28.90
2007,07,10,15,06,28.90
2007,07,10,15,07,28.90
2007,07,10,15,08,28.90
2007,07,10,15,09,28.90
2007,07,10,15,10,28.90
2007,07,10,15,11,28.90
2007,07,10,15,12,28.90
2007,07,10,15,13,28.90
2007,07,10,15,14,28.90
2007,07,10,15,15,29.00
2007,07,10,15,16,29.10
2007,07,10,15,17,29.10
2007,07,10,15,18,28.90
2007,07,10,15,19,28.90
2007,07,10,15,20,28.90
2007,07,10,15,21,28.90
2007,07,10,15,22,28.90
2007,07,10,15,23,28.90
2007,07,10,15,24,29.00
2007,07,10,15,25,29.10
2007,07,10,15,26,29.10
2007,07,10,15,27,29.20
2007,07,10,15,28,29.20
2007,07,10,15,29,29.30
2007,07,10,15,30,29.30
2007,07,10,15,31,29.30
2007,07,10,15,32,29.30
2007,07,10,15,33,29.30
2007,07,10,15,34,29.30
2007,07,10,15,35,29.10
2007,07,10,15,36,29.00
2007,07,10,15,37,28.90
2007,07,10,15,38,28.90
2007,07,10,15,39,28.90
2007,07,10,15,40,29.10
2007,07,10,15,41,29.10
2007,07,10,15,42,29.20
2007,07,10,15,43,29.20
2007,07,10,15,44,29.20
2007,07,10,15,45,29.30
2007,07,10,15,46,29.30
2007,07,10,15,47,29.40
2007,07,10,15,48,29.40
2007,07,10,15,49,29.30
2007,07,10,15,50,29.40
2007,07,10,15,51,29.50
2007,07,10,15,52,29.50
2007,07,10,15,53,29.50
2007,07,10,15,54,29.60
2007,07,10,15,55,29.60
2007,07,10,15,56,29.60
2007,07,10,15,57,29.70
2007,07,10,15,58,29.70
2007,07,10,15,59,29.70
2007,07,10,16,00,29.70
2007,07,10,16,01,29.70
2007,07,10,16,02,29.80
2007,07,10,16,03,29.80
2007,07,10,16,04,29.80
2007,07,10,16,05,29.80
2007,07,10,16,06,29.80
2007,07,10,16,07,29.80
2007,07,10,16,08,29.80
2007,07,10,16,09,29.70
2007,07,10,16,10,29.70
2007,07,10,16,11,29.60
2007,07,10,16,12,29.60
2007,07,10,16,13,29.60
2007,07,10,16,14,29.70
2007,07,10,16,15,29.70
2007,07,10,16,16,29.70
2007,07,10,16,17,29.70
2007,07,10,16,18,29.80
2007,07,10,16,19,29.90
2007,07,10,16,20,30.00
2007,07,10,16,21,30.10
2007,07,10,16,22,30.20
2007,07,10,16,23,30.30
2007,07,10,16,24,30.40
2007,07,10,16,25,30.40
2007,07,10,16,26,30.50
2007,07,10,16,27,30.60
2007,07,10,16,28,30.60
2007,07,10,16,29,30.60
2007,07,10,16,30,30.60
2007,07,10,16,31,30.60
2007,07,10,16,32,30.50
2007,07,10,16,33,30.40
2007,07,10,16,34,30.40
2007,07,10,16,35,30.40
2007,07,10,16,36,30.40
2007,07,10,16,37,30.40
2007,07,10,16,38,30.60
2007,07,10,16,39,30.60
2007,07,10,16,40,30.60
2007,07,10,16,41,30.60
2007,07,10,16,42,30.60
2007,07,10,16,43,30.60
2007,07,10,16,44,30.70
2007,07,10,16,45,30.70
2007,07,10,16,46,30.80
2007,07,10,16,47,30.80
2007,07,10,16,48,30.80
2007,07,10,16,49,30.80
2007,07,10,16,50,30.80
2007,07,10,16,51,30.80
2007,07,10,16,52,30.80
2007,07,10,16,53,30.90
2007,07,10,16,54,30.90
2007,07,10,16,55,30.90
2007,07,10,16,56,30.90
2007,07,10,16,57,30.90
2007,07,10,16,58,30.90
2007,07,10,16,59,30.90
2007,07,10,17,00,30.80
2007,07,10,17,01,30.80
2007,07,10,17,02,30.80
2007,07,10,17,03,30.80
2007,07,10,17,04,30.80
2007,07,10,17,05,30.80
2007,07,10,17,06,30.80
2007,07,10,17,07,30.80
2007,07,10,17,08,30.80
2007,07,10,17,09,30.70
2007,07,10,17,10,30.70
2007,07,10,17,11,30.70
2007,07,10,17,12,30.80
2007,07,10,17,13,30.80
2007,07,10,17,14,30.80
2007,07,10,17,15,30.70
2007,07,10,17,16,30.70
2007,07,10,17,17,30.60
2007,07,10,17,18,30.50
2007,07,10,17,19,30.40